This is the latest recevied weather packets stored in our database for station/object KC9DRE. If no packets are shown the sender has not sent any weather packets the latest 10 day(s).
| Time | Temp. | Humidity | Pressure | Rain* | Wind** | Luminosity | Snow |
|---|---|---|---|---|---|---|---|
| 1778283667 | 20.56° C | 43% | 1010.1 hPa | 0 mm | - | 47 W/m² | - |
| 1778283367 | 20.56° C | 43% | 1010 hPa | 0 mm | - | 55 W/m² | - |
| 1778283064 | 20.56° C | 43% | 1010.2 hPa | 0 mm | - | 59 W/m² | - |
| 1778282761 | 21.11° C | 42% | 1010.1 hPa | 0 mm | - | 60 W/m² | - |
| 1778282457 | 21.11° C | 41% | 1010.1 hPa | 0 mm | - | 95 W/m² | - |
| 1778282156 | 21.11° C | 40% | 1010.3 hPa | 0 mm | - | 79 W/m² | - |
| 1778281852 | 21.67° C | 40% | 1010.3 hPa | 0 mm | - | 83 W/m² | - |
| 1778281549 | 21.67° C | 41% | 1010.1 hPa | 0 mm | - | 103 W/m² | - |
| 1778281245 | 22.22° C | 40% | 1010.1 hPa | 0 mm | - | 103 W/m² | - |
| 1778280943 | 22.22° C | 39% | 1010.2 hPa | 0 mm | - | 174 W/m² | - |
| 1778280639 | 21.67° C | 40% | 1010.1 hPa | 0 mm | - | 200 W/m² | - |
| 1778280338 | 21.67° C | 40% | 1010.1 hPa | 0 mm | - | 216 W/m² | - |
| 1778280034 | 21.67° C | 43% | 1010.1 hPa | 0 mm | - | 132 W/m² | - |
| 1778279732 | 21.11° C | 42% | 1010.2 hPa | 0 mm | - | 146 W/m² | - |
| 1778279429 | 21.11° C | 42% | 1010.1 hPa | 0 mm | - | 125 W/m² | - |
| 1778279127 | 21.67° C | 41% | 1010.3 hPa | 0 mm | - | 137 W/m² | - |
| 1778278823 | 21.67° C | 40% | 1010.2 hPa | 0 mm | - | 157 W/m² | - |
| 1778278520 | 21.67° C | 41% | 1010.3 hPa | 0 mm | - | 170 W/m² | - |
| 1778278215 | 21.67° C | 40% | 1010.1 hPa | 0 mm | - | 163 W/m² | - |
| 1778277912 | 22.78° C | 39% | 1010.2 hPa | 0 mm | - | 154 W/m² | - |
| 1778277609 | 22.78° C | 39% | 1010.1 hPa | 0 mm | - | 151 W/m² | - |
| 1778277305 | 22.78° C | 39% | 1010 hPa | 0 mm | - | 304 W/m² | - |
| 1778277002 | 22.22° C | 39% | 1010 hPa | 0 mm | - | 375 W/m² | - |
| 1778276700 | 21.67° C | 41% | 1010.1 hPa | 0 mm | - | 368 W/m² | - |
| 1778276395 | 22.78° C | 39% | 1010.2 hPa | 0 mm | - | 118 W/m² | - |
* Rain latest hour (hover to see other rain measurements)
** Current wind speed in m/s (hover to see current wind gust speed)